Wetbulb
58.42 58.84 58.52 58.65 58.40 58.61 58.70 59.63 60.45 60.94 62.45 63.77 64.58 65.68 66.12 66.80 66.95 67.06 68.68 66.20 65.16 65.18 65.82 67.07 67.61 68.25 69.00 68.93 69.62 69.51 69.17 68.77 69.21 69.24 68.67 68.13 68.01 67.69 67.76 67.54 67.45 67.61 67.48
55.79 55.75 55.84 55.42 55.46 55.52 55.75 56.00 56.01 56.22 57.31 59.60 60.38 63.20 63.98 65.61 66.61 67.83 66.58 66.71 64.28 64.46 64.85 65.34 66.19 67.19 67.64 68.92 69.15 69.31 69.08 68.43 68.23 68.86 68.83 67.87 67.45 67.07 66.91 67.12 67.01 67.01 67.32
53.96 53.98 53.39 53.27 53.06 53.81 53.92 54.24 54.64 55.23 55.85 56.49 57.36 57.39 58.42 61.09 63.33 65.22 66.44 66.55 65.87 63.29 63.16 64.12 64.45 64.85 65.81 67.02 68.28 68.45 68.80 68.47 67.99 68.23 68.12 68.10 67.37 66.78 66.60 66.43 66.47 66.38 66.92
52.52 52.63 52.27 51.82 52.42 52.81 52.69 52.67 52.76 52.78 53.25 54.02 54.32 54.76 55.84 57.14 58.02 59.65 61.86 64.45 65.95 65.71 63.65 59.90 62.98 64.27 65.18 66.05 66.74 67.78 68.71 68.22 68.04 67.90 67.69 67.25 67.04 66.64 66.18 65.91 65.96 66.24 66.20
50.78 51.39 50.94 50.81 51.62 51.49 51.48 51.09 51.43 51.65 51.38 52.27 51.74 52.59 54.05 54.71 56.84 57.63 58.98 61.01 62.87 57.46 53.75 53.96 54.65 55.53 56.73 59.47 65.07 65.78 66.82 67.34 67.93 68.32 67.53 66.99 66.42 66.20 65.72 65.63 65.85 65.80 65.93
49.50 50.20 49.92 49.70 50.36 49.84 49.50 49.29 49.38 50.59 50.59 50.14 49.62 52.15 54.50 55.17 56.58 58.87 60.69 59.37 56.62 55.54 51.33 51.64 52.08 51.67 52.27 56.37 57.47 61.15 63.20 65.87 68.31 69.18 67.75 66.12 65.47 66.16 65.64 65.47 65.58 65.60 65.82
48.66 48.68 48.95 48.87 49.05 48.42 47.99 48.22 48.24 48.76 49.47 49.77 50.80 51.49 53.63 58.21 57.73 58.12 58.47 54.92 52.24 52.63 51.65 50.70 49.35 50.05 49.95 52.89 54.13 55.79 58.54 61.06 63.72 67.18 67.65 67.21 66.34 65.70 65.03 65.19 65.40 65.45 65.63
46.92 46.82 47.50 47.10 47.40 47.70 47.64 47.32 47.27 46.67 48.55 48.65 46.53 49.56 50.21 53.20 52.76 55.82 56.43 54.89 53.55 52.59 50.45 49.75 49.87 48.75 49.13 50.69 51.22 51.56 51.92 54.88 58.98 60.77 62.19 65.89 65.86 65.72 65.20 64.93 65.05 65.08 65.40
45.94 46.17 46.00 46.61 46.82 46.88 45.70 45.81 45.56 45.60 45.15 47.17 47.65 45.60 45.92 46.06 46.17 53.16 53.62 54.71 52.32 51.22 51.75 50.90 48.95 49.15 48.58 49.12 49.31 48.17 47.45 47.75 50.71 53.44 54.87 56.47 62.18 64.25 63.97 64.84 64.97 65.16 65.31
44.50 44.89 45.03 45.37 45.60 45.56 44.24 44.06 44.06 44.60 44.64 43.64 45.96 45.61 46.33 44.25 41.99 43.38 49.52 50.82 50.27 48.15 49.76 49.58 49.69 50.96 50.29 49.28 48.14 46.43 45.14 44.31 45.90 48.57 51.37 52.06 53.89 55.81 58.90 61.08 64.49 64.35 64.71
43.54 43.40 43.95 43.86 42.93 43.00 43.23 43.09 42.75 42.95 43.53 42.79 42.86 42.94 43.65 45.81 44.94 41.15 41.17 43.60 45.76 47.22 46.84 47.68 48.65 49.40 49.94 50.42 49.43 46.84 42.84 42.67 43.39 45.68 47.89 49.63 51.33 52.14 54.05 56.48 57.92 62.03 64.08
42.38 41.79 41.63 41.73 41.46 41.37 41.25 41.47 41.94 41.57 41.60 41.99 42.49 41.50 40.63 40.05 39.11 39.74 39.55 41.31 41.21 43.69 46.73 47.19 46.83 46.39 46.04 45.23 44.80 42.37 41.66 42.94 42.54 43.27 44.96 47.04 48.91 50.79 51.82 53.80 55.65 57.18 58.98
39.94 39.75 40.74 40.67 40.35 39.93 40.05 40.76 40.59 40.43 40.33 39.85 39.74 40.02 40.75 39.84 40.05 39.32 38.70 38.11 38.68 43.21 46.03 46.90 44.82 44.33 43.36 44.07 43.53 40.81 41.18 42.34 43.13 42.93 43.71 44.53 47.00 48.76 50.55 51.91 53.79 54.78 55.97
38.23 38.74 39.47 39.63 39.22 38.71 38.95 39.69 40.32 39.24 39.71 39.66 39.00 39.38 39.94 39.78 40.15 39.05 36.23 34.58 37.13 41.55 43.66 42.42 44.23 43.31 42.86 42.33 41.41 39.28 42.17 41.84 41.48 41.94 43.21 44.98 46.34 47.56 48.60 49.79 51.30 52.33 53.62
37.10 37.62 38.17 38.23 37.64 37.12 37.44 38.11 38.35 37.65 38.15 38.13 38.09 38.66 38.32 38.88 39.48 39.34 38.84 38.23 35.61 34.12 36.59 42.48 39.96 42.88 41.85 41.99 40.30 40.13 41.94 40.51 41.59 41.77 43.22 44.33 44.88 45.71 46.08 47.09 48.68 49.69 50.85
37.24 37.11 37.21 36.34 35.59 35.83 35.96 36.37 36.41 36.07 36.14 36.55 36.87 36.18 36.47 37.33 37.91 38.73 37.55 38.00 37.91 35.45 32.92 39.21 39.56 40.78 40.75 40.19 39.71 40.40 41.26 39.88 40.70 39.94 42.59 41.97 42.30 43.08 43.38 43.98 44.74 45.58 46.68
36.62 36.34 35.76 34.79 34.26 34.06 34.60 35.34 34.29 34.06 33.77 34.48 34.81 35.04 33.88 35.52 36.47 36.55 36.85 36.58 36.77 36.35 33.17 36.56 38.65 39.89 38.83 38.23 38.39 39.66 40.10 40.60 40.00 38.34 41.06 40.26 40.08 40.08 40.56 41.11 41.88 43.04 44.22
36.32 35.28 34.71 34.19 33.69 33.62 33.86 33.39 32.94 33.22 32.97 32.93 33.40 33.54 32.26 33.61 34.50 35.04 35.05 34.52 35.14 35.43 34.09 32.67 36.24 36.62 36.59 36.91 37.05 37.11 37.85 38.86 36.12 36.69 38.48 39.01 38.84 38.73 39.23 39.30 39.63 40.24 41.02
35.39 34.97 34.38 33.03 32.60 32.80 32.92 32.56 32.32 31.89 32.09 32.06 32.27 32.01 30.60 31.26 31.42 32.21 33.02 32.59 33.49 33.46 34.47 33.19 33.45 35.12 35.45 35.08 34.35 36.14 35.53 36.53 36.42 35.81 36.55 37.78 37.72 37.31 37.59 38.01 38.08 38.28 38.80
34.57 34.78 34.41 32.94 32.15 31.94 31.78 31.65 31.68 31.56 31.30 30.94 31.01 31.28 29.41 27.93 27.93 28.80 30.16 30.10 30.20 31.17 32.11 31.71 32.11 31.71 32.59 32.76 32.65 31.61 31.81 35.15 33.98 34.73 36.14 36.24 35.90 36.06 35.35 35.31 36.13 37.35 37.33
34.19 34.45 33.38 32.60 32.38 31.43 29.95 31.30 31.12 30.54 30.23 29.85 30.02 29.56 28.17 25.21 23.14 24.18 26.39 26.77 26.89 27.84 28.89 28.72 29.00 28.86 28.46 27.69 27.02 29.95 29.55 32.15 33.63 30.81 33.14 35.56 35.67 34.93 33.61 33.28 33.75 34.60 35.02
32.46 32.14 31.94 31.67 31.31 29.05 25.01 25.28 28.88 30.08 28.65 27.81 27.28 28.43 28.31 25.69 23.73 21.01 20.85 21.57 23.12 23.17 24.33 24.96 25.82 23.65 24.27 24.52 25.75 27.29 27.06 28.03 27.80 30.61 29.00 32.95 35.56 33.23 33.26 32.39 31.92 31.81 32.63
30.58 29.02 28.67 29.10 28.89 28.33 24.36 23.96 24.67 28.49 27.44 26.28 25.85 26.22 26.43 26.28 24.04 23.22 20.49 19.96 20.22 21.63 21.61 24.00 21.95 21.12 21.29 21.63 23.25 24.87 25.69 26.57 26.68 25.39 26.96 31.08 31.83 32.44 33.13 31.53 31.01 30.02 30.37
28.25 28.55 27.90 28.46 28.22 27.48 24.11 22.45 22.98 26.76 25.87 25.15 25.68 24.71 24.95 24.18 22.14 20.86 20.85 20.37 20.48 20.51 21.14 22.43 21.60 20.79 21.20 21.95 23.17 25.36 26.37 29.13 30.53 27.90 24.19 25.37 28.84 29.65 33.16 32.17 29.29 30.06 28.45
28.20 27.63 27.70 27.21 27.26 26.55 23.17 21.36 23.98 26.32 24.76 23.99 24.52 24.63 23.63 22.70 20.42 18.99 19.22 17.93 19.35 19.23 19.96 19.15 19.73 19.56 19.80 20.43 21.23 24.40 23.28 24.80 25.73 25.68 22.41 23.47 26.18 27.49 30.59 31.81 30.39 27.86 28.97
27.67 28.25 27.19 26.93 26.28 26.20 22.64 20.87 23.67 27.13 24.05 24.44 23.15 23.74 20.94 20.48 19.49 18.63 18.85 18.97 16.14 17.20 18.41 19.77 21.26 21.87 21.62 21.46 20.45 21.38 21.84 20.64 22.61 22.82 20.82 21.33 24.15 25.78 27.47 32.65 29.47 28.83 29.87
MSLP
1018.89 1018.68 1018.63 1018.36 1018.41 1018.33 1018.05 1017.61 1017.22 1016.93 1016.47 1015.96 1015.69 1015.28 1015.11 1014.78 1014.73 1014.60 1014.26 1014.46 1014.90 1015.12 1015.16 1015.14 1014.98 1014.80 1014.66 1014.59 1014.42 1014.60 1014.76 1014.80 1015.06 1015.31 1015.80 1016.32 1016.73 1017.22 1017.64 1018.11 1018.38 1018.68 1019.06
1019.63 1019.27 1019.09 1018.95 1018.85 1018.83 1018.72 1018.40 1018.05 1017.52 1016.92 1016.49 1016.06 1015.63 1015.27 1014.86 1014.33 1014.34 1014.38 1014.26 1014.41 1014.73 1014.88 1015.02 1014.89 1014.58 1014.33 1014.14 1014.03 1014.14 1014.16 1014.28 1014.42 1014.75 1015.01 1015.47 1015.94 1016.48 1016.91 1017.29 1017.79 1018.19 1018.46
1019.98 1019.77 1019.53 1019.38 1019.37 1019.17 1018.81 1018.39 1018.11 1017.57 1017.06 1016.50 1016.09 1015.70 1015.37 1014.89 1014.51 1014.16 1014.03 1013.93 1013.76 1013.80 1014.01 1014.38 1014.70 1014.55 1014.04 1013.80 1013.56 1013.69 1013.70 1013.56 1013.72 1013.94 1014.32 1014.71 1015.13 1015.62 1016.22 1016.58 1017.01 1017.43 1017.87
1020.51 1020.06 1019.95 1020.00 1020.01 1019.44 1019.13 1018.75 1018.30 1017.71 1017.06 1016.71 1016.23 1015.71 1015.25 1014.76 1014.29 1014.22 1013.94 1013.76 1013.16 1013.43 1013.50 1014.15 1014.15 1014.10 1013.77 1013.42 1013.41 1013.35 1013.30 1013.33 1013.24 1013.23 1013.46 1013.77 1014.33 1014.71 1015.30 1015.75 1016.17 1016.51 1017.11
1021.25 1020.73 1020.57 1020.65 1020.10 1019.60 1019.46 1019.17 1018.74 1018.42 1017.59 1016.98 1016.39 1015.57 1014.88 1014.45 1014.18 1013.78 1013.69 1013.75 1013.82 1014.84 1015.24 1015.02 1014.83 1014.84 1014.66 1014.07 1013.30 1013.18 1012.99 1012.72 1012.64 1012.38 1012.68 1013.41 1013.02 1014.21 1014.38 1014.88 1015.18 1015.74 1016.19
1021.41 1020.89 1021.10 1021.38 1020.90 1020.45 1020.05 1019.88 1019.36 1018.78 1018.17 1017.62 1016.82 1015.45 1014.55 1014.01 1013.96 1013.72 1014.12 1014.97 1015.67 1015.61 1015.91 1015.97 1015.46 1015.44 1015.39 1014.85 1014.35 1013.80 1013.37 1012.65 1011.63 1011.27 1011.80 1012.31 1013.05 1013.29 1013.56 1014.05 1014.38 1014.74 1015.39
1021.91 1021.45 1021.04 1021.13 1020.79 1020.69 1020.86 1020.54 1019.83 1019.05 1018.35 1018.20 1016.63 1015.15 1014.00 1013.67 1014.08 1014.18 1014.60 1015.78 1016.10 1016.09 1016.27 1016.33 1016.21 1015.84 1015.73 1015.55 1015.42 1014.87 1014.22 1013.24 1012.53 1011.64 1011.60 1011.68 1012.43 1011.72 1013.12 1013.17 1013.73 1013.99 1014.34
1022.46 1022.03 1021.82 1021.49 1021.52 1021.10 1021.01 1021.04 1020.81 1019.77 1018.82 1019.12 1018.03 1015.78 1014.18 1013.60 1014.51 1014.62 1015.09 1015.58 1016.04 1015.86 1016.22 1016.48 1016.40 1016.20 1016.03 1015.79 1016.01 1015.54 1015.32 1014.29 1013.37 1012.69 1012.26 1011.70 1011.79 1012.34 1012.74 1012.87 1013.00 1013.40 1013.60
1022.93 1022.74 1022.43 1022.22 1021.83 1021.32 1020.94 1021.09 1021.21 1020.96 1019.81 1019.52 1019.39 1018.32 1016.25 1015.44 1015.64 1014.61 1015.06 1015.35 1015.92 1015.90 1015.89 1015.94 1016.15 1016.08 1016.10 1016.10 1016.13 1015.70 1015.83 1015.23 1014.73 1014.13 1013.61 1013.19 1012.21 1012.27 1012.16 1012.79 1012.66 1012.93 1013.15
1022.68 1022.84 1022.85 1022.61 1022.60 1022.19 1021.84 1021.61 1021.53 1021.46 1020.87 1020.22 1019.81 1019.61 1019.01 1018.85 1017.75 1016.20 1015.52 1015.14 1015.81 1016.06 1016.13 1016.11 1016.04 1015.59 1015.48 1015.82 1016.13 1016.12 1016.13 1015.77 1015.28 1014.66 1014.42 1013.95 1013.50 1013.04 1011.99 1012.19 1012.23 1012.55 1012.54
1023.11 1022.84 1022.78 1022.77 1022.64 1022.90 1023.00 1022.66 1022.12 1021.87 1021.55 1021.21 1020.94 1020.35 1019.64 1018.85 1019.12 1018.62 1016.75 1016.54 1016.28 1016.22 1016.64 1016.38 1016.55 1016.19 1015.75 1015.53 1015.58 1015.79 1016.42 1016.13 1015.75 1015.08 1014.58 1014.38 1013.92 1013.37 1012.80 1012.55 1012.06 1011.52 1011.65
1023.29 1023.60 1023.29 1023.08 1023.08 1023.08 1023.46 1023.20 1022.74 1022.51 1022.33 1021.92 1021.80 1021.24 1020.66 1020.03 1020.08 1019.39 1018.65 1017.60 1017.06 1016.62 1016.65 1016.61 1016.82 1017.11 1017.15 1016.89 1016.48 1016.80 1016.78 1016.17 1015.59 1015.13 1014.79 1014.34 1013.91 1013.52 1013.01 1012.82 1011.79 1011.36 1011.24
1023.61 1023.85 1023.37 1023.41 1023.32 1023.60 1023.79 1023.69 1023.38 1022.90 1022.92 1022.88 1022.38 1022.08 1021.67 1021.20 1021.25 1020.61 1020.34 1019.16 1018.30 1016.77 1016.42 1016.74 1017.32 1017.71 1017.97 1017.49 1016.94 1017.07 1016.53 1016.08 1015.54 1015.06 1014.62 1014.14 1013.82 1013.44 1012.69 1012.57 1012.09 1012.00 1011.88
1023.95 1024.10 1023.73 1023.83 1023.92 1023.86 1024.19 1023.79 1024.02 1023.29 1023.33 1023.34 1022.96 1022.59 1022.08 1022.05 1021.80 1021.64 1021.69 1021.22 1018.50 1016.88 1016.54 1017.04 1017.37 1017.76 1018.17 1017.91 1017.36 1017.01 1016.12 1015.87 1015.67 1015.09 1014.30 1013.81 1013.43 1013.19 1013.03 1012.78 1012.44 1012.11 1012.15
1024.19 1024.35 1024.19 1023.84 1024.36 1024.21 1024.26 1024.27 1024.40 1023.82 1023.68 1023.57 1023.23 1022.90 1022.59 1022.63 1022.42 1022.28 1022.14 1021.55 1020.64 1018.73 1017.71 1016.91 1017.69 1017.93 1018.45 1017.92 1017.57 1017.28 1016.25 1016.00 1015.72 1015.14 1014.28 1013.81 1013.53 1013.17 1012.95 1012.59 1012.27 1012.20 1012.02
1023.91 1024.61 1024.55 1024.22 1024.43 1024.44 1024.62 1024.79 1024.48 1024.44 1024.01 1024.00 1023.56 1023.40 1023.06 1023.22 1022.92 1022.96 1022.36 1021.89 1021.26 1020.57 1019.63 1018.71 1018.50 1018.57 1018.74 1017.93 1017.54 1017.04 1016.28 1016.12 1015.95 1015.74 1014.75 1014.31 1013.88 1013.45 1013.12 1012.79 1012.47 1012.11 1011.82
1024.06 1024.80 1024.57 1024.49 1024.65 1024.83 1025.01 1025.08 1025.03 1024.77 1024.36 1024.16 1024.06 1023.92 1023.87 1023.90 1023.41 1023.00 1022.78 1022.29 1021.61 1021.41 1020.61 1019.87 1019.40 1018.82 1018.19 1017.84 1017.74 1017.18 1016.55 1016.03 1016.18 1016.38 1015.51 1014.89 1014.51 1014.12 1013.75 1013.39 1013.05 1012.72 1012.15
1024.28 1024.62 1024.74 1024.58 1025.17 1025.29 1025.26 1025.18 1025.04 1025.11 1024.86 1024.66 1024.60 1024.38 1024.71 1024.47 1023.77 1023.53 1023.14 1022.93 1022.33 1021.84 1021.34 1020.33 1019.46 1018.82 1018.71 1018.47 1018.07 1017.44 1016.95 1016.73 1017.28 1017.18 1016.50 1015.73 1015.22 1014.82 1014.45 1014.00 1013.66 1013.25 1012.76
1024.23 1024.41 1024.50 1025.07 1025.37 1025.50 1025.67 1025.44 1025.56 1025.60 1025.44 1025.35 1025.26 1025.22 1025.50 1025.20 1024.74 1024.37 1023.86 1023.43 1022.82 1022.35 1021.44 1020.80 1019.78 1019.56 1019.30 1019.22 1018.61 1018.18 1017.83 1017.59 1017.66 1017.69 1017.04 1016.35 1016.04 1015.83 1015.45 1014.82 1014.23 1013.82 1013.30
1024.20 1024.24 1024.66 1025.36 1025.75 1026.02 1025.81 1025.81 1025.90 1025.86 1025.90 1025.99 1025.95 1025.87 1026.27 1026.43 1026.22 1025.64 1024.67 1024.45 1023.95 1022.91 1022.05 1021.39 1020.57 1020.41 1019.96 1019.99 1019.57 1019.08 1018.46 1018.11 1018.16 1017.94 1017.47 1017.28 1017.09 1016.91 1016.38 1015.82 1015.12 1014.61 1014.15
1024.33 1024.48 1025.11 1025.54 1025.72 1026.34 1026.60 1026.36 1026.27 1026.32 1026.40 1026.38 1026.38 1026.33 1026.95 1027.61 1027.65 1027.20 1026.41 1025.93 1025.39 1024.24 1023.29 1022.62 1021.79 1021.44 1021.26 1021.14 1020.59 1019.90 1019.32 1018.51 1018.44 1019.03 1018.15 1017.63 1017.30 1017.01 1017.10 1016.90 1016.56 1015.94 1015.27
1025.33 1024.93 1025.67 1025.87 1026.19 1026.96 1028.04 1027.90 1027.00 1026.91 1027.19 1027.14 1027.03 1026.85 1026.95 1027.47 1027.56 1027.88 1027.87 1027.62 1027.15 1026.17 1025.09 1024.43 1023.42 1023.29 1023.24 1022.96 1022.16 1021.01 1020.41 1019.38 1018.66 1019.35 1019.14 1018.01 1017.72 1017.65 1017.80 1017.85 1017.79 1017.31 1016.68
1026.18 1026.24 1026.71 1026.89 1027.21 1027.70 1028.45 1028.60 1028.42 1027.89 1027.93 1028.00 1027.92 1027.71 1027.51 1027.64 1027.88 1027.90 1028.08 1027.97 1027.76 1027.11 1026.73 1025.84 1025.21 1025.35 1024.96 1024.69 1023.66 1022.10 1021.30 1020.68 1020.36 1021.02 1020.03 1018.65 1018.65 1018.25 1018.27 1018.53 1018.38 1018.14 1017.65
1026.74 1026.76 1027.19 1027.43 1027.58 1028.20 1028.65 1029.06 1029.03 1028.72 1028.63 1028.60 1028.54 1028.53 1028.33 1028.25 1028.56 1028.51 1028.23 1028.00 1027.88 1027.71 1027.32 1026.84 1026.71 1026.76 1026.48 1025.87 1024.60 1023.00 1021.68 1020.66 1020.74 1021.25 1021.60 1020.02 1019.90 1019.12 1018.84 1018.71 1018.87 1018.45 1018.37
1027.01 1027.03 1027.52 1027.84 1027.92 1028.36 1028.93 1029.33 1029.06 1028.80 1028.89 1028.96 1029.05 1028.90 1028.97 1028.88 1028.98 1028.93 1028.58 1028.44 1028.06 1028.04 1027.95 1027.78 1027.54 1027.38 1027.05 1026.46 1025.57 1023.61 1022.52 1021.50 1021.23 1021.71 1022.80 1021.71 1020.82 1019.86 1019.22 1018.92 1019.14 1019.10 1018.45
1026.91 1027.23 1027.84 1028.08 1028.18 1028.41 1029.13 1029.53 1029.25 1028.93 1029.01 1029.15 1029.33 1029.24 1029.56 1029.57 1029.49 1029.29 1028.99 1028.59 1028.43 1028.46 1028.20 1027.68 1027.46 1027.07 1026.82 1026.57 1026.10 1025.41 1024.65 1023.52 1022.77 1022.52 1023.87 1022.94 1021.55 1020.58 1019.22 1019.01 1019.36 1019.62 1018.89
Wind_Speed
5 5 5 5 6 7 7 7 7 8 8 8 8 8 9 10 9 6 6 6 2 3 7 11 12 14 16 15 12 16 20 22 23 23 23 21 21 21 20 18 18 18 19
6 5 5 6 6 6 7 7 8 8 8 8 10 10 10 9 9 10 6 6 5 8 9 12 15 17 17 17 13 14 18 21 24 24 23 22 22 21 22 21 20 20 20
6 6 5 5 6 6 7 6 7 7 8 7 9 9 10 11 10 10 9 8 8 7 9 8 13 14 16 18 14 15 15 18 22 25 25 23 23 22 22 22 22 20 21
8 6 5 6 6 6 6 7 7 7 7 8 9 9 9 10 10 10 10 9 7 7 5 19 12 13 16 17 18 18 18 16 19 25 26 24 23 23 22 22 22 23 22
8 6 6 6 6 5 6 7 7 7 8 8 9 9 8 8 9 9 9 9 8 10 8 13 16 20 22 24 11 11 16 18 18 24 22 11 19 22 22 23 23 23 23
7 6 6 8 7 7 7 8 9 8 8 8 10 9 7 6 5 5 7 10 10 11 11 11 8 9 19 20 24 21 16 14 14 18 19 21 22 27 22 21 22 23 23
8 8 5 6 6 6 8 9 8 9 8 10 8 6 6 2 5 5 5 5 7 8 9 9 7 6 7 16 21 22 22 20 21 7 10 19 21 20 18 19 21 22 22
8 6 7 6 8 6 8 10 11 8 6 9 8 7 3 4 6 3 4 5 7 5 6 8 9 9 8 6 12 20 23 25 24 24 21 13 8 9 10 15 19 20 21
8 8 8 7 6 6 7 8 9 11 8 7 9 7 5 5 9 3 1 2 6 8 8 6 6 6 7 6 7 12 20 23 22 22 21 22 12 16 10 14 10 15 18
8 8 7 8 8 7 8 7 8 7 9 8 5 6 5 4 5 6 5 7 10 11 9 8 9 7 5 3 7 12 20 23 22 20 19 20 17 15 9 4 12 13 11
7 7 7 7 7 6 7 8 7 8 6 6 6 6 6 4 2 5 8 9 8 8 9 7 8 8 9 9 9 12 22 23 22 19 18 17 19 16 13 9 7 6 11
4 6 7 7 7 6 7 6 6 8 8 7 6 6 6 5 6 5 8 11 9 8 6 6 8 8 10 10 12 17 22 20 18 19 18 17 15 18 13 13 9 9 8
4 6 6 7 7 7 6 6 7 7 7 7 7 6 5 5 5 6 8 8 7 7 4 5 7 8 10 10 12 19 21 17 17 19 20 19 16 16 14 14 12 10 10
4 5 6 6 6 6 6 6 4 5 6 5 8 7 5 5 5 5 5 8 7 6 6 6 7 9 10 10 13 21 14 14 20 23 22 17 14 11 12 12 13 13 14
4 5 5 6 5 6 6 5 4 6 5 6 6 7 6 5 5 5 2 5 6 7 10 7 10 12 11 11 13 14 13 18 17 21 17 12 11 11 12 12 12 13 14
6 4 4 5 5 7 5 5 4 6 6 6 5 7 7 6 5 4 6 5 5 6 7 9 9 12 12 11 15 14 12 15 13 20 16 16 16 16 15 15 15 15 14
6 4 5 6 6 6 5 4 5 6 6 6 7 7 8 7 5 5 5 5 5 5 8 9 9 10 14 15 15 13 12 8 9 21 18 17 17 19 18 18 18 17 16
6 6 5 6 5 5 5 6 6 6 7 7 8 8 8 7 7 7 6 7 7 7 8 12 11 10 12 14 15 14 11 9 9 15 18 18 19 19 21 20 19 19 18
7 7 7 6 5 5 5 6 6 6 7 7 8 8 9 9 8 8 7 7 7 7 8 8 9 9 9 11 13 11 10 9 8 14 16 16 21 23 23 23 22 22 21
7 7 7 6 5 5 5 5 5 6 7 7 7 8 10 10 10 10 8 8 9 9 8 8 8 9 9 12 10 11 9 6 7 8 10 13 16 21 24 24 26 24 23
7 8 7 6 6 6 5 5 5 6 7 7 8 7 9 10 11 11 8 9 10 8 7 8 8 9 10 12 13 11 10 9 6 10 8 8 7 9 12 19 21 26 26
7 7 6 6 6 6 7 7 6 5 7 8 8 8 8 10 8 8 9 9 10 9 9 8 8 10 12 12 12 11 9 9 7 11 9 7 7 8 9 11 24 25 26
7 9 7 7 7 7 7 6 5 5 6 6 7 7 6 7 8 6 5 4 7 11 10 9 10 10 11 13 13 12 11 8 7 10 10 6 8 7 8 11 22 25 26
7 7 7 6 6 6 6 5 3 4 5 6 6 8 7 8 9 6 5 4 6 7 10 8 9 9 10 13 13 10 11 5 2 9 13 6 8 7 5 9 21 22 25
7 7 6 5 5 7 6 2 4 2 4 5 5 9 8 8 12 9 5 4 6 7 6 8 9 10 11 16 17 10 10 8 3 6 12 6 9 7 4 7 10 21 20
8 6 6 5 5 8 8 4 2 2 3 3 4 6 13 10 12 11 6 5 6 7 7 7 6 7 9 11 17 13 11 9 8 5 11 8 9 8 4 5 8 10 10
Wind_Direction
28 17 19 15 13 358 355 343 339 330 319 307 305 296 296 296 280 278 298 355 3 314 298 288 278 279 277 272 256 239 233 224 220 210 208 206 203 204 202 205 201 195 192
22 25 22 20 13 5 351 341 343 327 324 320 311 313 306 286 278 281 271 278 283 259 267 280 276 270 266 271 269 250 242 237 228 218 210 206 203 207 204 203 204 202 196
42 17 26 16 9 356 343 340 331 323 314 317 312 310 304 298 298 292 281 271 272 258 228 262 277 274 271 266 275 270 265 244 235 227 217 208 207 207 207 204 205 203 202
31 40 29 20 2 358 355 347 340 330 327 319 318 309 307 300 295 291 286 291 283 291 327 20 349 323 302 286 278 278 280 275 257 235 226 222 213 210 208 206 206 204 205
30 30 30 17 357 6 6 351 343 338 329 326 315 303 295 292 300 306 311 301 5 44 34 13 30 27 19 17 340 318 289 286 281 247 231 225 272 234 213 209 206 206 207
42 36 37 17 360 8 7 358 345 343 323 329 310 296 300 292 294 307 11 37 43 42 38 27 25 21 27 25 26 19 6 347 304 228 199 201 232 258 224 214 209 207 208
36 33 37 25 10 27 13 3 348 344 347 345 305 331 289 99 45 17 65 60 40 38 33 35 20 18 21 19 29 25 14 21 11 302 227 215 210 242 237 212 214 210 209
39 44 30 35 24 16 24 16 3 348 6 4 341 282 347 173 55 33 42 42 35 38 28 14 18 19 19 14 31 28 16 18 21 22 9 258 217 203 261 245 222 218 214
47 37 38 34 34 30 33 23 12 9 351 10 14 347 329 353 338 88 74 24 359 351 340 344 353 6 19 9 27 25 9 5 5 10 10 7 345 237 227 248 249 228 221
68 55 44 37 27 24 30 24 22 5 3 10 358 6 18 340 350 321 327 352 7 327 345 343 324 321 354 20 7 23 358 353 348 350 350 355 353 344 351 307 239 237 246
68 67 56 50 42 28 21 20 21 18 20 7 10 358 9 32 32 305 303 342 326 359 344 349 336 351 345 3 351 14 347 337 333 335 335 337 338 331 336 320 315 288 253
77 46 53 54 51 41 20 15 18 27 16 22 4 15 13 20 351 344 318 327 330 6 349 23 12 355 358 343 329 2 338 319 324 328 324 321 323 324 319 311 323 312 312
66 53 48 42 40 34 26 13 18 31 25 17 22 8 17 24 357 353 325 339 315 322 349 45 9 12 348 341 338 356 323 339 323 325 316 312 315 311 319 307 306 299 292
77 63 59 50 43 38 18 20 16 33 23 21 24 23 6 10 4 12 355 323 327 332 2 34 360 11 352 347 340 339 331 324 339 321 312 311 320 332 322 306 295 293 285
108 78 71 69 46 44 31 11 18 25 27 21 21 18 2 5 1 352 3 313 346 332 330 5 347 358 349 343 5 335 327 349 330 4 1 13 7 8 353 338 321 305 296
98 89 74 70 67 48 38 8 20 30 21 24 12 19 8 360 346 347 337 331 327 330 301 331 337 338 343 347 358 338 341 328 14 3 6 26 25 26 20 12 3 346 323
107 106 84 73 58 58 42 26 33 31 35 36 29 18 12 349 344 353 339 333 319 322 300 311 318 334 340 353 351 347 346 349 18 7 13 40 31 31 30 27 20 15 12
123 103 85 74 67 57 52 44 40 29 26 28 24 24 11 349 355 0 337 337 320 324 311 314 327 346 347 357 349 356 354 7 14 4 1 41 42 39 33 31 28 23 21
124 111 89 77 75 61 50 53 46 39 37 30 22 27 16 2 3 351 338 343 337 324 320 319 325 349 348 4 352 2 358 9 24 13 7 25 35 39 33 33 34 29 26
124 109 98 92 79 69 60 61 51 52 52 44 31 33 31 13 3 357 345 355 343 332 336 328 338 344 359 0 357 356 352 8 21 10 35 35 42 38 36 30 30 30 29
117 106 110 106 93 67 34 32 64 54 45 47 42 37 46 27 20 19 354 2 351 348 350 340 356 353 3 356 359 347 348 337 74 22 344 35 43 42 34 32 26 23 23
115 104 107 108 96 78 63 39 2 66 57 44 34 30 33 33 27 42 25 22 14 8 7 351 3 4 357 356 349 343 353 339 7 28 335 42 12 43 46 33 34 27 25
116 113 104 99 89 88 86 69 29 62 67 56 41 28 26 37 27 4 55 41 40 28 26 2 12 11 354 351 340 341 348 330 23 15 339 34 359 51 34 40 27 33 25
135 123 121 119 106 100 101 93 84 82 80 64 45 34 31 27 33 11 15 32 50 39 24 21 26 16 4 355 347 336 325 303 147 46 2 5 5 345 5 41 28 17 26
140 125 129 137 126 104 89 87 276 138 97 77 59 47 32 33 31 23 34 35 48 38 44 28 29 25 16 14 11 2 5 12 28 43 19 325 355 336 319 38 26 11 23
134 130 131 131 113 111 101 84 285 113 110 103 74 55 46 39 36 36 33 28 54 36 18 31 25 33 28 23 26 25 10 15 9 25 16 334 0 355 325 43 41 12 351